FW5236 Weather Reports


time (UTC)temp
C
wind
direction
speed
KPH
gust
KPH
rain 1hr
cm
rain 24hr
cm
rain mn
cm
humidity
%
barometer
mb
20260905054531 15 45 0.0 0.0 0.00 0.00 0.00 65 1017.3
20260905053031 -17 0 0.0 0.0 0.00 0.00 0.00 100
20260905051532 -17 0 0.0 0.0 0.00 0.00 0.00 100
20260905050030 -17 0 0.0 0.0 0.00 0.00 0.00 100
20260905044532 -17 0 0.0 0.0 0.00 0.00 0.00 100
20260905041531 17 45 0.0 0.0 0.00 0.00 0.00 59 1017.0
20260905040030 -17 0 0.0 0.0 0.00 0.00 0.00 100
20260905034532 -17 0 0.0 0.0 0.00 0.00 0.00 100
20260905033032 -17 0 0.0 0.0 0.00 0.00 0.00 100
20260905031606 -17 0 0.0 0.0 0.00 0.00 0.00 100
20260905030105 -17 0 0.0 0.0 0.00 0.00 0.00 100
20260905024531 -17 0 0.0 0.0 0.00 0.00 0.00 100
20260905023032 -17 0 0.0 0.0 0.00 0.00 0.00 100
20260905021532 -17 0 0.0 0.0 0.00 0.00 0.00 100
20260905020032 -17 0 0.0 0.0 0.00 0.00 0.00 100
20260905014531 18 59 0.0 3.2 0.00 0.00 0.00 57 1016.9
20260905013028 18 52 0.0 4.8 0.00 0.00 0.00 53 1016.7
20260905011530 18 28 0.0 4.8 0.00 0.00 0.00 53 1016.5
20260905010028 19 35 1.6 6.4 0.00 0.00 0.00 54 1016.3
20260905004606 20 36 0.0 8.0 0.00 0.00 0.00 56 1016.2
20260905003034 20 45 1.6 6.4 0.00 0.00 0.00 55 1016.1
20260905001528 19 55 1.6 6.4 0.00 0.00 0.00 54 1016.1
20260905000031 17 47 0.0 3.2 0.00 0.00 0.00 62 1016.1
20260904234531 16 64 0.0 1.6 0.00 0.00 0.00 64 1016.2
20260904233030 16 172 0.0 4.8 0.00 0.00 0.00 62 1016.6
20260904231533 17 265 1.6 4.8 0.00 0.00 0.00 56 1016.3
20260904230029 18 327 1.6 6.4 0.00 0.00 0.00 50 1016.0
20260904224533 20 34 1.6 4.8 0.00 0.00 0.00 46 1015.6
20260904223030 -17 0 0.0 0.0 0.00 0.00 0.00 100
20260904220030 -17 0 0.0 0.0 0.00 0.00 0.00 100
20260904214533 -17 0 0.0 0.0 0.00 0.00 0.00 100
20260904213030 21 152 1.6 4.8 0.00 0.00 0.00 44 1015.5
20260904211531 21 168 3.2 6.4 0.00 0.00 0.00 45 1015.7
20260904210028 -17 0 0.0 0.0 0.00 0.00 0.00 100
20260904204532 -17 0 0.0 0.0 0.00 0.00 0.00 100
20260904203029 -17 0 0.0 0.0 0.00 0.00 0.00 100
20260904201529 -17 0 0.0 0.0 0.00 0.00 0.00 100
20260904200030 21 177 1.6 4.8 0.00 0.00 0.00 46 1015.8
20260904194530 20 151 1.6 6.4 0.00 0.00 0.00 47 1016.1
20260904193029 21 24 0.0 0.0 0.00 0.00 0.00 50 1016.3
20260904191531 21 74 0.0 3.2 0.00 0.00 0.00 48 1016.3
20260904190030 -17 0 0.0 0.0 0.00 0.00 0.00 100
20260904183031 22 39 0.0 6.4 0.00 0.00 0.00 47 1016.3
20260904181532 22 51 0.0 6.4 0.00 0.00 0.00 48 1016.3
20260904170106 15 292 0.0 0.0 0.00 0.00 0.00 70 1016.5
20260904163033 15 297 0.0 1.6 0.00 0.00 0.00 73 1016.3
20260904161528 13 225 0.0 0.0 0.00 0.00 0.00 83 1016.4
20260904160105 12 225 0.0 0.0 0.00 0.00 0.00 87 1016.4
20260904154530 11 225 0.0 0.0 0.00 0.00 0.00 88 1016.4
20260904153107 11 225 0.0 1.6 0.00 0.00 0.00 89 1016.3
20260904151533 11 225 0.0 0.0 0.00 0.00 0.00 90 1016.2
20260904143034 10 225 0.0 0.0 0.00 0.00 0.00 91 1015.8
20260904141528 10 225 0.0 3.2 0.00 0.00 0.00 91 1015.7
20260904134530 8 227 0.0 3.2 0.00 0.00 0.00 92 1015.4
20260904133030 8 247 0.0 3.2 0.00 0.00 0.00 91 1015.2
20260904131610 8 247 0.0 0.0 0.00 0.00 0.00 90 1015.0
20260904130106 9 247 0.0 0.0 0.00 0.00 0.00 90 1014.9
20260904124606 10 247 0.0 0.0 0.00 0.00 0.00 89 1015.0
20260904123030 10 247 0.0 1.6 0.00 0.00 0.00 89 1014.9
20260904121528 10 247 0.0 1.6 0.00 0.00 0.00 88 1014.9
20260904114531 10 247 0.0 1.6 0.00 0.00 0.00 88 1014.7
20260904113030 10 247 0.0 0.0 0.00 0.00 0.00 87 1014.5
20260904111530 10 247 0.0 3.2 0.00 0.00 0.00 87 1014.5
20260904110028 10 247 0.0 1.6 0.00 0.00 0.00 87 1014.3
20260904104530 10 257 0.0 4.8 0.00 0.00 0.00 86 1014.2
20260904103031 10 283 1.6 4.8 0.00 0.00 0.00 86 1014.1
20260904101608 9 269 1.6 4.8 0.00 0.00 0.00 87 1013.9
20260904100029 9 226 3.2 4.8 0.00 0.00 0.00 88 1013.9
20260904094531 9 224 3.2 6.4 0.00 0.00 0.00 88 1013.9
20260904093029 8 225 1.6 4.8 0.00 0.00 0.00 88 1013.8
20260904091608 9 228 1.6 3.2 0.00 0.00 0.00 87 1013.7
20260904090030 9 226 1.6 4.8 0.00 0.00 0.00 86 1013.8
20260904083030 9 232 1.6 4.8 0.00 0.00 0.00 86 1013.6
20260904081530 9 231 3.2 6.4 0.00 0.00 0.00 86 1013.6
20260904080032 9 236 1.6 6.4 0.00 0.00 0.00 86 1013.7
20260904074606 9 265 1.6 3.2 0.00 0.00 0.00 86 1013.5
20260904073030 9 242 1.6 4.8 0.00 0.00 0.00 85 1013.5
20260904071531 9 284 1.6 4.8 0.00 0.00 0.00 86 1013.5
20260904070029 9 277 1.6 6.4 0.00 0.00 0.00 86 1013.4
20260904063031 -17 0 0.0 0.0 0.00 0.00 0.00 100
20260904060030 11 292 3.2 3.2 0.00 0.00 0.00 79 1013.2